Location: Invercargill
(46.4000°S, 168.3500°E)
Time: 14:21:12
(UTC+12:00)

SPOT 3 Rocket - Pass Details

Date: 24 January 2019
Orbit: 778 x 795 km, 98.8° (Epoch: 22 April)

Event Time Altitude Azimuth Distance (km) Brightness Sun altitude
Rises 21:56:39 0° 164° (SSE) 3,322 7.1 -4.7°
Reaches altitude 10° 21:59:01 10° 161° (SSE) 2,383 6.3 -5.0°
Maximum altitude 22:04:16 70° 77° (ENE) 845 3.6 -5.8°
Drops below altitude 10° 22:09:26 10° 353° (N) 2,342 5.7 -6.5°
Sets 22:11:44 0° 350° (N) 3,261 6.5 -6.8°
